Flag for Ireland Weather past 2 weeks in Dublin, Ireland

Now
37 °F

Passing clouds.


Feels Like: 27 °F
Forecast: 43 / 52 °F
Wind: 21 mph from West

Location: Dublin Airport

Current Time: Apr 1, 2015 at 7:55:13 AM

Latest Report: Apr 1, 2015 at 7:30 AM


Visibility: N/A

Pressure: 30.21 "Hg

Humidity: 87%

Dew point: 34 °F

Location of DublinLocation

Historic Weather in Dublin — Graph

°F

Dublin temperature yesterday

Maximum temperature yesterday: 48 °F (at 12:00 AM)
Minimum temperature yesterday: 37 °F (at 10:30 PM)
Average temperature yesterday: 43 °F

Past Weeks' High & Low Weather Summary

 TemperatureHumidityPressure
High57 °F (Mar 28, 11:00 AM)100% (Mar 17, 6:00 AM)30.60 "Hg (Mar 17, 6:00 AM)
Low25 °F (Mar 18, 5:30 AM)50% (Mar 23, 2:30 PM)29.27 "Hg (Mar 29, 9:00 AM)
Average43 °F82%30.02 "Hg
* Reported Mar 17 6:00 AM — Apr 1 7:00 AM, Dublin, Weather by CustomWeather, © 2015

Note: Actual official high and low records may vary slightly from our data, if they occured in-between our weather recording intervals... More about our weather records

Advertising

Dublin weather history for previous 24 hours

 ConditionsComfort  
Time TempWeatherWind HumidityBarometerVisibility
7:00 AM
Wed, Apr 1
37 °FPassing clouds.21 mph87%30.21 "HgN/A
6:30 AM37 °FPassing clouds.21 mph81%30.21 "HgN/A
6:00 AM37 °FPassing clouds.24 mph81%30.21 "HgN/A
5:30 AM37 °FPassing clouds.17 mph81%30.21 "HgN/A
5:00 AM37 °FPassing clouds.22 mph81%30.21 "HgN/A
4:30 AM37 °FPassing clouds.21 mph81%30.21 "HgN/A
4:00 AM37 °FPassing clouds.18 mph81%30.21 "HgN/A
3:30 AM37 °FPassing clouds.18 mph81%30.21 "HgN/A
3:00 AM37 °FPassing clouds.21 mph81%30.21 "HgN/A
2:30 AM37 °FPassing clouds.21 mph81%30.18 "HgN/A
2:00 AM37 °FPassing clouds.18 mph81%30.18 "HgN/A
1:30 AM37 °FPassing clouds.23 mph81%30.18 "HgN/A
1:00 AM37 °FPassing clouds.21 mph81%30.18 "HgN/A
12:30 AM37 °FPassing clouds.22 mph81%30.15 "HgN/A
12:00 AM37 °FPassing clouds.23 mph75%30.15 "HgN/A
11:30 PM
Tue, Mar 31
37 °FPassing clouds.20 mph81%30.15 "HgN/A
11:00 PM39 °FPassing clouds.17 mph75%30.12 "HgN/A
10:30 PM37 °FPassing clouds.17 mph81%30.12 "HgN/A
10:00 PM39 °FPassing clouds.24 mph70%30.12 "HgN/A
9:30 PM39 °FSprinkles. Passing clouds.22 mph75%30.09 "HgN/A
9:00 PM39 °FPassing clouds.22 mph75%30.09 "HgN/A
8:30 PM39 °FScattered showers. Passing clouds.21 mph75%30.07 "HgN/A
8:00 PM39 °FSprinkles. Passing clouds.26 mph75%30.07 "HgN/A
7:30 PM41 °FPassing clouds.24 mph70%30.04 "HgN/A
7:00 PM39 °FScattered showers. Passing clouds.28 mph81%30.04 "HgN/A
6:30 PM43 °FScattered showers. Passing clouds.35 mph61%30.01 "HgN/A
6:00 PM45 °FPassing clouds.32 mph57%29.98 "HgN/A
5:30 PM45 °FScattered showers. Passing clouds.24 mph71%29.98 "HgN/A
5:00 PM43 °FScattered showers. Passing clouds.28 mph81%29.95 "HgN/A
4:30 PM39 °FScattered showers. Scattered clouds.38 mph87%29.95 "HgN/A
4:00 PM45 °FPassing clouds.30 mph61%29.92 "HgN/A
3:30 PM43 °FScattered showers. Passing clouds.35 mph71%29.92 "HgN/A
3:00 PM41 °FScattered showers. Passing clouds.32 mph87%29.92 "HgN/A
2:30 PM45 °FScattered showers. Passing clouds.36 mph66%29.89 "HgN/A
2:00 PM43 °FScattered showers. Passing clouds.28 mph87%29.89 "HgN/A
1:30 PM45 °FSprinkles. Scattered clouds.33 mph71%29.86 "HgN/A
1:00 PM43 °FScattered showers. Passing clouds.35 mph81%29.86 "HgN/A
12:30 PM46 °FScattered showers. Passing clouds.33 mph62%29.83 "HgN/A
12:00 PM46 °FScattered showers. Passing clouds.32 mph57%29.83 "HgN/A
11:30 AM46 °FScattered showers. Passing clouds.39 mph57%29.83 "HgN/A
11:00 AM46 °FScattered showers. Scattered clouds.31 mph66%29.80 "HgN/A
10:30 AM45 °FScattered showers. Passing clouds.29 mph66%29.80 "HgN/A
10:00 AM45 °FScattered showers. Broken clouds.31 mph71%29.77 "HgN/A
9:30 AM45 °FScattered showers. Scattered clouds.29 mph71%29.77 "HgN/A
9:00 AM43 °FSprinkles. Broken clouds.26 mph81%29.77 "HgN/A
8:30 AM43 °FPassing clouds.28 mph76%29.74 "HgN/A
8:00 AM43 °FPassing clouds.25 mph76%29.71 "HgN/A
7:30 AM43 °FPassing clouds.26 mph71%29.71 "HgN/A
7:00 AM41 °FPassing clouds.25 mph81%29.68 "HgN/A
Weather by CustomWeather, © 2015

See weather overviewHow to use our weather pages